Location: Rodson Ranch
(38.7188°N, 119.3202°W)
Time: 12:35:04
(UTC+00:00)

Cosmos 2292 Rocket - Pass Details

Date: 29 October 2020
Orbit: 381 x 1451 km, 83.0° (Epoch: 01 December)

Event Time Altitude Azimuth Distance (km) Brightness Sun altitude
Rises 13:46:11 0° 193° (SSW) 2,266 6.5 -7.5°
Reaches altitude 10° 13:48:02 10° 197° (SSW) 1,456 5.4 -7.2°
Maximum altitude 13:51:05 62° 279° (W) 505 2.9 -6.6°
Drops below altitude 10° 13:54:46 10° 1° (N) 1,755 5.8 -5.9°
Sets 13:57:11 0° 4° (N) 2,801 6.8 -5.4°
